Location: Hillern
(53.0557°N, 9.8577°E)
Time: 00:26:44
(UTC+00:00)

Cosmos 1066 Rocket - Pass Details

Date: 19 May 2025
Orbit: 798 x 892 km, 81.2° (Epoch: 15 June)

Event Time Altitude Azimuth Distance (km) Brightness Sun altitude
Exits shadow 23:04:55 28° 178° (S) 1,557 5.0 -16.9°
Maximum altitude 23:08:00 73° 99° (E) 903 4.3 -16.9°
Drops below altitude 10° 23:13:46 10° 16° (NNE) 2,543 7.9 -17.0°
Sets 23:16:15 0° 15° (NNE) 3,496 8.9 -17.0°
